Wind_Speed
33 33 33 31 31 36 33 33 32 39 45 43 39 37 38 38 38 38 39 41 42 42 43 37 36 35 34 32 30 31 34 38 43 45 45 46 47 50
31 35 31 31 28 29 37 38 38 40 47 48 41 40 40 40 39 41 42 41 40 37 37 36 33 33 32 32 31 30 31 34 39 43 45 45 43 44
31 28 25 29 30 32 38 42 40 46 51 48 41 39 40 41 40 40 40 37 35 34 32 32 32 31 29 29 31 31 30 30 33 39 42 43 44 45
25 26 28 29 32 37 39 41 44 44 44 44 40 39 39 40 38 38 33 31 33 31 31 30 30 30 30 29 27 29 30 29 30 34 37 41 45 45
24 26 28 31 34 36 37 38 38 36 36 39 40 38 38 36 33 32 32 31 31 31 31 31 28 26 22 26 27 27 26 27 30 32 34 38 43 41
30 31 30 31 33 36 36 33 33 33 34 36 36 35 34 30 29 32 32 30 30 27 27 28 25 21 20 20 23 23 22 26 28 32 32 35 39 39
29 30 31 33 35 35 31 29 32 33 34 33 32 32 29 29 29 30 33 32 22 25 26 25 24 23 22 15 17 17 17 22 25 30 31 33 35 35
30 31 31 33 33 30 28 30 32 34 32 33 33 31 27 28 30 33 28 24 24 23 25 20 23 21 18 17 17 14 13 20 22 25 28 29 29 29
30 31 32 33 29 27 29 30 29 28 30 31 31 29 28 29 32 26 23 24 24 19 19 18 17 21 20 15 23 9 16 24 18 20 22 21 21 24
30 32 32 30 25 27 28 26 26 26 27 29 30 29 28 29 24 21 20 20 18 15 18 19 14 19 20 21 18 18 15 18 17 16 16 15 16 18
31 32 30 27 24 27 25 23 23 24 25 26 27 26 27 23 19 18 17 15 15 14 13 19 11 13 19 20 18 21 20 15 18 14 11 16 17 19
30 31 27 23 25 25 24 23 23 24 23 23 23 22 23 17 16 15 10 12 15 15 11 16 9 10 8 17 22 24 21 20 20 13 15 13 18 21
28 26 24 22 24 23 23 24 24 24 23 23 23 20 18 15 13 11 10 12 13 16 18 19 12 12 13 9 12 13 21 22 19 14 16 13 13 17
26 24 22 23 23 22 23 22 22 22 22 22 21 20 18 14 12 12 12 13 12 17 19 17 11 16 12 11 12 3 7 7 14 11 12 16 9 15
25 23 21 21 21 20 20 20 19 20 20 19 19 19 17 16 12 11 11 9 10 14 13 10 8 14 15 11 10 4 6 5 7 12 9 16 15 13
26 23 20 19 18 17 17 18 19 20 21 20 18 18 18 16 15 12 9 9 8 7 6 9 11 4 13 17 13 9 6 6 10 6 11 9 22 15
28 23 19 18 16 14 15 16 17 19 20 21 19 17 17 17 15 13 11 10 10 8 7 5 10 9 1 10 17 14 13 10 7 11 18 14 13 22
27 23 19 18 16 14 14 14 15 17 20 21 21 18 16 16 15 13 12 11 12 14 12 9 4 7 4 5 6 18 16 17 14 12 13 20 15 15
25 23 21 19 18 16 16 15 15 16 18 21 22 19 15 15 15 15 12 11 10 12 14 12 9 5 1 4 3 2 9 11 13 15 13 14 16 18
23 23 21 20 19 18 17 16 15 15 16 18 19 19 17 15 14 15 14 11 10 9 10 13 13 11 10 2 2 3 8 8 7 10 12 15 16 18
23 22 20 20 20 19 18 17 16 14 14 15 16 17 17 16 14 14 14 13 10 9 7 8 9 12 13 10 6 6 8 7 7 4 6 7 11 15
24 22 20 20 20 19 18 16 15 15 14 14 14 15 15 16 15 13 13 12 12 9 8 7 4 4 9 13 12 8 9 7 7 13 13 6 8 7
23 25 23 21 20 19 19 17 16 15 15 14 14 14 14 14 14 13 11 11 11 10 7 7 3 4 8 9 11 13 12 9 5 6 12 16 13 13
Wind_Direction
308 301 294 295 288 281 286 305 296 296 308 312 310 306 301 297 296 296 293 291 293 291 289 288 286 280 274 271 266 258 252 241 237 240 241 240 237 233
308 307 297 296 286 284 291 299 295 294 303 305 304 302 299 299 298 296 295 294 291 289 287 287 283 277 273 267 264 261 257 248 239 238 240 240 237 229
307 303 298 294 291 294 291 295 295 296 297 299 302 301 298 298 298 295 294 293 290 287 285 282 279 275 271 265 261 258 256 252 246 239 240 240 239 232
308 301 301 297 290 291 294 291 292 294 298 300 303 302 301 301 300 298 296 293 290 290 286 285 281 275 268 262 258 255 253 251 250 244 240 240 240 237
308 306 299 294 294 297 296 294 296 299 298 300 304 305 304 303 301 298 298 297 295 292 287 282 282 275 271 259 253 255 257 257 248 244 242 241 240 239
305 305 302 301 301 300 301 304 303 302 302 303 305 306 307 306 304 305 303 301 300 292 281 277 278 273 261 261 254 262 263 260 252 242 243 244 242 242
304 304 305 305 305 303 307 303 305 307 307 308 311 315 313 308 308 307 304 304 300 291 281 281 275 269 259 266 249 259 271 271 254 242 245 246 242 243
304 306 305 305 305 307 307 309 312 313 315 316 318 317 312 313 314 312 313 311 307 298 282 276 276 257 261 250 225 262 271 259 257 245 246 247 244 242
307 308 307 307 310 310 310 312 312 310 311 314 318 319 316 316 314 315 317 315 318 313 299 268 265 247 246 255 231 242 249 258 253 245 250 251 240 234
310 307 306 308 312 309 313 314 312 312 315 318 320 318 315 317 314 317 314 315 321 328 307 293 280 251 247 246 241 240 264 253 258 247 247 238 231 229
307 305 304 309 312 314 316 316 316 316 317 320 320 316 317 316 314 315 313 331 348 339 299 296 286 265 242 237 246 244 253 268 255 250 239 221 229 204
305 305 306 311 314 318 320 320 321 319 320 321 323 320 318 312 311 312 319 338 346 352 320 297 262 269 256 225 234 248 260 272 260 223 194 220 205 205
304 304 307 311 316 319 323 325 324 323 323 324 327 321 324 310 306 308 305 330 337 335 334 305 253 254 258 258 234 251 261 258 240 213 197 203 199 220
308 308 306 312 320 322 325 328 329 325 325 323 326 332 329 313 304 303 296 295 307 315 323 312 287 243 253 254 238 217 221 243 208 191 198 189 199 205
310 308 303 310 314 317 323 328 329 330 329 326 328 332 329 332 308 298 298 292 288 314 319 345 316 239 237 250 240 219 182 156 194 181 103 185 174 183
308 307 298 303 305 313 324 327 335 339 339 336 331 330 338 333 326 304 293 282 275 315 335 42 13 311 234 240 239 225 145 193 160 197 160 157 193 171
301 304 293 293 299 309 316 326 336 342 347 348 338 332 335 337 330 325 298 281 263 279 305 329 7 29 341 229 228 229 227 226 214 212 166 147 182 203
294 301 291 286 293 295 303 313 328 338 348 353 349 339 331 336 340 331 325 291 269 268 278 275 317 344 13 47 221 223 231 238 234 213 207 172 183 197
291 293 287 279 284 286 289 300 315 329 343 351 353 348 340 336 340 341 333 324 291 272 264 264 275 289 89 42 65 185 220 221 217 216 214 216 214 211
283 285 284 277 277 282 283 290 300 315 330 342 347 349 350 341 338 342 343 332 329 310 279 267 257 252 243 253 311 204 181 181 178 200 215 225 225 220
273 278 278 275 274 275 278 283 290 302 314 325 337 340 345 345 342 342 344 346 338 333 319 286 258 242 241 227 250 213 196 184 187 220 198 220 230 229
266 265 269 270 270 272 274 278 285 293 302 312 322 331 338 345 344 343 346 347 348 340 341 331 287 238 222 219 219 205 218 222 211 205 216 223 234 214
275 268 264 265 267 271 275 279 281 286 293 302 311 319 330 335 345 343 345 348 348 353 348 344 322 240 227 212 211 217 227 204 212 232 235 229 217 229
Height
3042 3038 3035 3033 3029 3025 3022 3017 3014 3010 3006 3005 3001 2998 2992 2989 2986 2983 2979 2975 2971 2967 2963 2960 2958 2956 2954 2954 2954 2955 2957 2961 2963 2966 2970 2974 2979 2986
3032 3029 3027 3025 3023 3021 3017 3013 3009 3005 2997 2996 2992 2987 2983 2979 2976 2971 2967 2963 2959 2956 2952 2950 2948 2945 2945 2945 2945 2946 2948 2949 2952 2955 2958 2962 2966 2973
3026 3023 3021 3019 3017 3015 3011 3006 3003 2998 2989 2985 2983 2978 2972 2968 2965 2960 2955 2952 2948 2946 2943 2940 2937 2936 2936 2935 2935 2937 2938 2940 2942 2944 2947 2950 2955 2961
3020 3017 3014 3012 3010 3007 3003 2999 2994 2989 2982 2973 2972 2968 2963 2957 2953 2947 2945 2942 2938 2935 2933 2931 2928 2927 2926 2926 2926 2928 2929 2930 2932 2934 2937 2942 2943 2950
3014 3011 3008 3005 3002 2999 2995 2990 2985 2980 2974 2966 2962 2958 2952 2947 2943 2939 2935 2932 2929 2926 2923 2921 2919 2918 2917 2918 2919 2920 2921 2922 2924 2925 2927 2931 2934 2939
3010 3004 3002 2998 2994 2991 2986 2981 2975 2971 2965 2959 2954 2949 2943 2939 2935 2929 2926 2924 2920 2917 2914 2912 2912 2911 2911 2911 2912 2913 2915 2916 2916 2917 2919 2922 2925 2930
3002 3000 2995 2991 2986 2983 2978 2973 2968 2962 2957 2951 2946 2940 2936 2931 2927 2923 2918 2914 2913 2908 2905 2906 2905 2905 2905 2905 2907 2909 2909 2909 2908 2910 2912 2914 2917 2921
2997 2992 2988 2984 2980 2975 2970 2965 2960 2953 2948 2942 2938 2933 2929 2925 2920 2915 2911 2906 2905 2902 2897 2899 2897 2898 2899 2900 2901 2900 2901 2902 2902 2904 2906 2908 2911 2915
2990 2985 2982 2977 2973 2968 2963 2958 2954 2949 2943 2938 2932 2927 2922 2918 2913 2909 2905 2901 2898 2896 2892 2891 2891 2892 2893 2893 2895 2895 2897 2898 2897 2899 2901 2904 2906 2910
2983 2979 2975 2971 2967 2962 2957 2953 2948 2943 2938 2932 2926 2922 2917 2912 2907 2904 2901 2898 2895 2892 2888 2885 2886 2886 2888 2889 2890 2891 2893 2893 2894 2895 2897 2900 2903 2906
2977 2973 2968 2964 2960 2956 2951 2947 2942 2938 2933 2928 2922 2917 2912 2907 2904 2901 2898 2894 2892 2890 2887 2882 2882 2881 2883 2886 2886 2887 2889 2890 2890 2892 2895 2897 2900 2903
2970 2966 2962 2958 2954 2949 2945 2941 2937 2933 2928 2924 2919 2913 2908 2904 2901 2898 2895 2892 2888 2886 2884 2881 2880 2879 2879 2880 2882 2883 2884 2886 2887 2889 2891 2893 2896 2899
2964 2960 2956 2953 2948 2944 2940 2935 2931 2927 2923 2919 2914 2910 2905 2901 2898 2895 2893 2890 2887 2885 2883 2878 2878 2877 2876 2877 2879 2880 2881 2882 2883 2886 2888 2890 2894 2897
2958 2954 2950 2946 2943 2939 2935 2931 2927 2923 2919 2915 2911 2906 2902 2898 2895 2893 2891 2889 2886 2883 2880 2876 2874 2874 2874 2875 2876 2878 2878 2878 2880 2884 2886 2889 2893 2897
2952 2948 2945 2942 2939 2936 2932 2928 2925 2920 2916 2912 2907 2903 2899 2895 2892 2890 2888 2886 2885 2882 2879 2875 2872 2871 2872 2873 2874 2876 2876 2878 2880 2883 2885 2888 2893 2896
2946 2943 2940 2937 2935 2932 2928 2925 2921 2917 2913 2908 2904 2900 2896 2892 2889 2886 2885 2883 2882 2882 2878 2875 2872 2870 2870 2871 2873 2875 2876 2878 2880 2882 2886 2888 2891 2895
2939 2937 2935 2932 2930 2927 2925 2921 2918 2915 2910 2905 2901 2897 2893 2890 2887 2884 2881 2881 2879 2879 2877 2876 2873 2871 2869 2869 2871 2874 2876 2878 2879 2880 2885 2887 2890 2893
2932 2930 2928 2926 2924 2923 2921 2918 2915 2912 2908 2903 2899 2894 2891 2888 2885 2882 2879 2877 2876 2875 2875 2874 2874 2873 2872 2870 2870 2872 2874 2876 2878 2880 2882 2885 2888 2892
2924 2923 2921 2920 2919 2917 2916 2914 2912 2909 2905 2901 2897 2893 2889 2886 2883 2880 2877 2875 2873 2872 2872 2872 2872 2873 2872 2871 2871 2870 2872 2874 2876 2879 2882 2884 2886 2889
2917 2915 2914 2913 2912 2911 2910 2909 2907 2905 2902 2899 2896 2892 2888 2885 2882 2879 2876 2873 2871 2869 2869 2868 2869 2870 2871 2872 2871 2872 2873 2874 2876 2878 2880 2882 2885 2888
2909 2908 2907 2906 2905 2905 2904 2903 2902 2901 2899 2896 2894 2890 2887 2884 2880 2877 2875 2872 2869 2868 2866 2865 2865 2866 2868 2870 2871 2871 2873 2874 2876 2878 2880 2881 2882 2885
2900 2900 2900 2899 2898 2898 2898 2897 2897 2896 2894 2893 2891 2888 2885 2882 2879 2876 2874 2871 2869 2866 2865 2864 2863 2864 2865 2867 2869 2871 2872 2873 2875 2877 2878 2880 2882 2883
2891 2891 2891 2891 2891 2891 2890 2890 2890 2890 2889 2888 2887 2884 2882 2880 2878 2875 2873 2870 2868 2866 2864 2863 2862 2863 2863 2865 2867 2869 2870 2872 2873 2875 2876 2878 2879 2881